Home   Weather   Kaiserslautern   Past weeks

Flag for Germany Past Weather in Kaiserslautern, Rhineland-Palatinate, Germany — Yesterday and Last 2 Weeks

Now
73 °F

Partly sunny.


Feels Like: 77 °F
Forecast: 59 / 69 °F
Wind: 14 mph from West

Location: Ramstein

Current Time: Jul 26, 2017 at 5:02:38 pm

Latest Report: Jul 26, 2017 at 3:58 pm


Visibility: N/A

Pressure: 29.85 "Hg

Humidity: 49%

Dew Point: 53 °F

Location of KaiserslauternLocation

Past Weather in Kaiserslautern — Graph

°F

Kaiserslautern Temperature Yesterday

Maximum temperature yesterday: 64 °F (at 3:58 pm)
Minimum temperature yesterday: 53 °F (at 1:58 am)
Average temperature yesterday: 58 °F

High & Low Weather Summary for the Past Weeks

 TemperatureHumidityPressure
High90 °F (Jul 19, 1:58 pm)100% (Jul 11, 9:58 pm)30.27 "Hg (Jul 11, 9:58 pm)
Low43 °F (Jul 13, 5:58 am)33% (Jul 14, 5:58 pm)29.73 "Hg (Jul 24, 7:51 am)
Average65 °F78%29.96 "Hg
* Reported Jul 11 2:58 pm — Jul 26 2:58 pm, Kaiserslautern. Weather by CustomWeather, © 2017

Note: Actual official high and low records may vary slightly from our data, if they occured in-between our weather recording intervals... More about our weather records

Advertising

Kaiserslautern Weather History for the Previous 24 Hours

Scroll right to see more
 ConditionsComfort  
Time TempWeatherWind HumidityBarometerVisibility
2:58 pm
Wed, Jul 26
69 °FBroken clouds.14 mph56%29.85 "HgN/A
1:58 pm68 °FBroken clouds.15 mph59%29.85 "HgN/A
12:58 pm65 °FBroken clouds.12 mph69%29.85 "HgN/A
11:58 am65 °FBroken clouds.9 mph71%29.86 "HgN/A
10:58 am63 °FBroken clouds.15 mph83%29.85 "HgN/A
10:28 am63 °FBroken clouds.10 mph83%29.85 "HgN/A
10:18 am64 °FBroken clouds.13 mph78%29.85 "HgN/A
10:03 am64 °FPartly sunny.13 mph78%29.84 "HgN/A
9:33 am63 °FBroken clouds.7 mph83%29.84 "HgN/A
8:58 am60 °FPartly sunny.8 mph92%29.83 "HgN/A
8:24 am59 °FBroken clouds.12 mph94%29.82 "HgN/A
7:58 am59 °FBroken clouds.14 mph94%29.81 "HgN/A
7:18 am57 °FBroken clouds.10 mph100%29.82 "HgN/A
6:58 am57 °FOvercast.12 mph100%29.81 "HgN/A
6:33 am57 °FMostly cloudy.12 mph100%29.81 "HgN/A
5:58 am57 °FMore clouds than sun.12 mph100%29.81 "HgN/A
5:38 am57 °FMostly cloudy.9 mph100%29.81 "HgN/A
5:26 am57 °FOvercast.10 mph100%29.81 "HgN/A
4:58 am57 °FPartly cloudy.10 mph99%29.80 "HgN/A
4:14 am57 °FMostly cloudy.9 mph100%29.80 "HgN/A
3:58 am57 °FLight rain. Overcast.8 mph100%29.80 "Hg6 mi
3:33 am57 °FLight rain. Passing clouds.9 mph100%29.80 "Hg6 mi
2:58 am57 °FLight rain. Passing clouds.10 mph99%29.79 "Hg6 mi
1:58 am57 °FLight rain. Overcast.9 mph99%29.78 "Hg6 mi
12:58 am57 °FLight rain. Mostly cloudy.12 mph99%29.78 "Hg6 mi
12:36 am57 °FLight rain. Partly cloudy.13 mph100%29.78 "Hg6 mi
12:11 am57 °FLight rain. Partly cloudy.14 mph100%29.78 "Hg6 mi
11:58 pm
Tue, Jul 25
57 °FLight rain. Mostly cloudy.14 mph100%29.78 "Hg6 mi
11:36 pm57 °FLight rain. Partly cloudy.13 mph100%29.78 "Hg6 mi
10:58 pm57 °FLight rain. Overcast.12 mph99%29.78 "Hg6 mi
10:12 pm57 °FLight rain. Overcast.9 mph100%29.79 "Hg6 mi
9:58 pm58 °FLight rain. Mostly cloudy.13 mph97%29.80 "Hg6 mi
9:20 pm59 °FLight rain. Partly cloudy.9 mph100%29.79 "Hg6 mi
8:58 pm59 °FLight rain. Cloudy.8 mph96%29.79 "Hg6 mi
7:58 pm59 °FLight rain. Mostly cloudy.7 mph100%29.80 "Hg6 mi
7:11 pm60 °FLight rain. Mostly cloudy.9 mph99%29.81 "Hg6 mi
5:58 pm60 °FLight rain. Mostly cloudy.8 mph97%29.82 "Hg6 mi
Weather by CustomWeather, © 2017

See weather overviewHow to use our weather pages